This is the latest recevied weather packets stored in our database for station/object EA4URC-13. If no packets are shown the sender has not sent any weather packets the latest 10 day(s).
| Time | Temp. | Humidity | Pressure | Rain* | Wind** | Luminosity | Snow |
|---|---|---|---|---|---|---|---|
| 1777857224 | 11.67° C | 70% | 1005.6 hPa | - | - | - | - |
| 1777856361 | 12.22° C | 69% | 1005.3 hPa | - | - | - | - |
| 1777856324 | 12.22° C | 69% | 1005.3 hPa | - | - | - | - |
| 1777855424 | 12.22° C | 68% | 1005.5 hPa | - | - | - | - |
| 1777854524 | 10.56° C | 73% | 1006.2 hPa | - | - | - | - |
| 1777853624 | 12.22° C | 69% | 1005.6 hPa | - | - | - | - |
| 1777852724 | 12.22° C | 68% | 1005.9 hPa | - | - | - | - |
| 1777851824 | 11.67° C | 69% | 1006 hPa | - | - | - | - |
| 1777850924 | 12.78° C | 66% | 1005.7 hPa | - | - | - | - |
| 1777850024 | 12.78° C | 66% | 1005.8 hPa | - | - | - | - |
| 1777849124 | 13.89° C | 63% | 1005.5 hPa | - | - | - | - |
| 1777848217 | 13.89° C | 63% | 1005.5 hPa | - | - | - | - |
| 1777847317 | 13.33° C | 65% | 1006 hPa | - | - | - | - |
| 1777846417 | 13.89° C | 53% | 1005.6 hPa | - | - | - | - |
| 1777845517 | 13.89° C | 51% | 1005.5 hPa | - | - | - | - |
| 1777844617 | 15° C | 48% | 1005 hPa | - | - | - | - |
| 1777843717 | 15° C | 48% | 1005 hPa | - | - | - | - |
| 1777842817 | 15.56° C | 49% | 1005 hPa | - | - | - | - |
| 1777841961 | 15° C | 50% | 1005 hPa | - | - | - | - |
| 1777841917 | 15° C | 50% | 1005 hPa | - | - | - | - |
| 1777841017 | 16.11° C | 54% | 1004.2 hPa | - | - | - | - |
| 1777840104 | 15° C | 54% | 1004.5 hPa | - | - | - | - |
| 1777839204 | 15° C | 51% | 1004.3 hPa | - | - | - | - |
| 1777838285 | 16.67° C | 46% | 1003.2 hPa | - | - | - | - |
| 1777837386 | 17.22° C | 46% | 1003 hPa | - | - | - | - |
* Rain since midnight (hover to see other rain measurements)
** Current wind speed in m/s (hover to see current wind gust speed)